User: anonymous   Login
Location: Unspecified
(0.0000°N, 0.0000°E)
Time: 11:41:01
(UTC+00:00)
Language:

BEESAT 2 - Orbit

View from above orbital plane
View from above orbital plane
View from above satellite
View from above satellite

Ground track
Ground track

The orbit data is extracted from the following two-line orbital elements,

1 39136U 13015G   19347.83771523 +.00000752 +00000-0 +47297-4 0  9999
2 39136 064.8688 188.2991 0030678 283.1475 076.6229 15.17207847366803
Epoch (UTC): 13 December 2019 20:06:18
Eccentricity: 0.0030678
inclination: 64.8688°
perigee height: 493 km
apogee height: 535 km
right ascension of ascending node: 188.2991°
argument of perigee: 283.1475°
revolutions per day: 15.17207847
mean anomaly at epoch: 76.6229°
orbit number at epoch: 36680

The dashed part of the orbit path shows where the satellite is in the earth's shadow,  

DLR